Regional Weather Roundup
Issued by NWS

Home | Current Version | Previous Version | Graphics & Text | Print | Product List | Glossary On
Versions: 1 2 3 4 5 6 7 8 9 10 11 12 13 14 15 16 17 18 19 20 21 22 23 24 25 26 27 28 29 30 31 32 33 34 35 36 37 38 39 40 41 42 43 44 45 46 47 48 49 50
000
ASUS43 KFSD 060902
RWRSD

WEATHER ROUNDUP FOR SOUTH DAKOTA
NATIONAL WEATHER SERVICE SIOUX FALLS SD
400 AM CDT FRI MAY 06 2016

NOTE: "FAIR" INDICATES FEW OR NO CLOUDS BELOW 12,000 FEET WITH NO
SIGNIFICANT WEATHER AND/OR OBSTRUCTIONS TO VISIBILITY.


SDZ001>005-009-010-012>017-061000-
NORTHWEST AND NORTH CENTRAL SOUTH DAKOTA

CITY           SKY/WX    TMP DP  RH WIND       PRES   REMARKS
BUFFALO          N/A     66  40  38 NW5       29.79F
FAITH            N/A     56  45  66 S14       29.83R
MOBRIDGE       CLOUDY    56  49  77 SE5       29.77S
$$

SDZ012>016-024>037-041>051-057-063-072>074-061000-
SOUTHWEST AND SOUTH CENTRAL SOUTH DAKOTA

CITY           SKY/WX    TMP DP  RH WIND       PRES   REMARKS
RAPID CTY ARPT CLEAR     54  39  57 CALM      29.86F
PIERRE         MOCLDY    60  49  66 W12       29.80S
CUSTER         CLOUDY    50  34  54 CALM      30.01F
ELLSWORTH AFB  CLEAR     59  40  49 SW10      29.85F
PHILIP         CLEAR     56  47  71 W3        29.83S
PINE RIDGE     CLOUDY    58  45  62 SW12      29.91S
WINNER         LGT RAIN  66  48  52 S20G30    29.86S
$$

SDZ004>011-016>023-039-040-061000-
NORTHEAST SOUTH DAKOTA

CITY           SKY/WX    TMP DP  RH WIND       PRES   REMARKS
ABERDEEN       CLEAR     61  46  57 S8        29.79S
WATERTOWN      PTCLDY    56  44  64 S9        29.86F
BROOKINGS      CLEAR     54  44  69 S6        29.89F
SISSETON         N/A     70  43  37 SW20G29   29.78F
$$

SDZ017-020-022-023-036>040-048>070-061000-
SOUTHEAST SOUTH DAKOTA

CITY           SKY/WX    TMP DP  RH WIND       PRES   REMARKS
SIOUX FALLS    CLEAR     59  43  55 S10       29.91F
HURON          CLOUDY    61  48  62 S12       29.82F
MITCHELL       CLEAR     61  49  64 S9        29.87F
YANKTON        CLEAR     63  43  48 S9        29.91S
$$

ABBREVIATIONS USED IN REMARKS
   TC - TEMPERATURE IN CELSIUS
  WCI - WIND CHILL INDEX
   HX - HEAT INDEX
  VSB - VISIBILITY





USA.gov is the U.S. government's official web portal to all federal, state and local government web resources and services.